Skip Page Navigation
NASA JPL Caltech
NASA Logo - Jet Propulsion Laboratory + View the NASA Portal
+ Center for Near-Earth Object Studies
JPL Home Earth Solar System Stars & Galaxies Technology
JPL Solar System Dynamics
BODIES ORBITS EPHEMERIDES TOOLS PHYSICAL DATA DISCOVERY FAQ SITE MAP
IMPORTANT: The SSD Announcement email list is now available. Major changes are coming in the near future, including possible hostname and/or URL changes. To be notified of such changes, subscribe to this email list.

Please visit this page for more details.


JPL Small-Body Database Browser
Search: [ help ]  
434341 (2004 PU80)
Classification: Main-belt Asteroid          SPK-ID: 2434341
Ephemeris | Orbit Diagram | Orbital Elements | Mission Design | Physical Parameters | Discovery Circumstances ]

[ show orbit diagram ]
Orbital Elements at Epoch 2458600.5 (2019-Apr-27.0) TDB
Reference: JPL 11 (heliocentric ecliptic J2000)
 Element Value Uncertainty (1-sigma)   Units 
e .09323935880848311 7.5805e-08  
a 2.444963506330418 3.7335e-08 au
q 2.216996676690029 1.9366e-07 au
i 6.398780494206162 8.0136e-06 deg
node 287.1785885979183 7.1943e-05 deg
peri 4.455383348346501 9.0422e-05 deg
M 331.8161616156086 6.2479e-05 deg
tp 2458709.821262294550
(2019-Aug-14.32126229)
0.00024401 TDB
period 1396.390863773678
3.82
3.1984e-05
8.757e-08
d
yr
n .2578074730646099 5.9051e-09 deg/d
Q 2.672930335970806 4.0816e-08 au
  Orbit Determination Parameters
   # obs. used (total)      100  
   data-arc span      4967 days (13.60 yr)  
   first obs. used      2004-08-10  
   last obs. used      2018-03-17  
   planetary ephem.      DE431  
   SB-pert. ephem.      SB431-N16  
   condition code      0  
   norm. resid. RMS      .59684  
   source      ORB  
   producer      Otto Matic  
   solution date      2019-Jul-14 13:12:42  

Additional Information
 Earth MOID = 1.20014 au 
 Jupiter MOID = 2.46984 au 
 T_jup = 3.485 
[ show covariance matrix ]

Ephemeris | Orbit Diagram | Orbital Elements | Mission Design | Physical Parameters | Discovery Circumstances ]

Physical Parameter Table
Parameter Symbol Value Units Sigma Reference Notes
absolute magnitude H 17.2   n/a MPO437680  

434341 (2004 PU80)          Discovered 2004-Aug-10 by LINEAR at Socorro
Reference: Last Updated: 2015-06-04

Alternate Designations
 2004 PU80 = 2012 TM94 
Ephemeris | Orbit Diagram | Orbital Elements | Mission Design | Physical Parameters | Discovery Circumstances ]
ABOUT SSD CREDITS/AWARDS PRIVACY/COPYRIGHT GLOSSARY LINKS
FirstGov
(server date/time)  
NASA Home Page
Site Manager:   Ryan S. Park
Webmaster  Alan B. Chamberlin